Regional Weather Roundup
Issued by NWS Columbia, SC

Home | Current Version | Previous Version | Text Only | Print | Product List | Glossary On
Versions: 1 2 3 4 5 6 7 8 9 10 11 12 13 14 15 16 17 18 19 20 21 22 23 24 25 26 27 28 29 30 31 32 33 34 35 36 37 38 39 40 41 42 43 44 45 46 47 48 49 50
000
ASUS42 KCAE 301410
RWRCAE
REGIONAL WEATHER ROUNDUP
NATIONAL WEATHER SERVICE COLUMBIA SC
1000 AM EDT SAT AUG 30 2014

NOTE: "FAIR" INDICATES FEW OR NO CLOUDS BELOW 12,000 FEET WITH NO
SIGNIFICANT WEATHER AND/OR OBSTRUCTIONS TO VISIBILITY.

NOT ALL STATIONS ARE QUALITY CONTROLLED BY THE NATIONAL
WEATHER SERVICE. USE DATA WITH CAUTION...ESPECIALLY
DEWPOINT OBSERVATIONS.

SCZ001>056-GAZ040-063>065-077-301500-
...UPSTATE SOUTH CAROLINA...

CITY           SKY/WX    TMP DP  RH WIND       PRES   REMARKS
ANDERSON       SUNNY     79  71  76 E8        30.20R
LIBERTY        FAIR      78  78 100 E8        30.20S
SPARTANBURG    FAIR      79  73  83 SE5       30.21R
CLEMSON        SUNNY     80  68  66 E5        30.21S
GREENVILLE     SUNNY     79  68  69 E8        30.22S
GREENWOOD      MOSUNNY   78  70  76 VRB3      30.21S
GREER          SUNNY     78  70  76 N5        30.20S
ROCK HILL      SUNNY     78  71  79 VRB3      30.22S
LAURENS        CLOUDY    75  75 100 SE7       30.22R


...CENTRAL SOUTH CAROLINA...

CITY           SKY/WX    TMP DP  RH WIND       PRES   REMARKS
COLUMBIA APT   PTSUNNY   81  72  74 E5        30.19R
COLUMBIA OWENS CLOUDY    82  73  74 CALM      30.20R
DARLINGTON     CLOUDY    81  72  74 N7        30.22R
FLORENCE       MOSUNNY   82  72  71 NE6       30.20S
MCENTIRE ANGB  SUNNY     83  74  73 CALM      30.20R
ORANGEBURG     SUNNY     82  73  74 S5        30.20R
SUMTER SHAW    CLOUDY    76  76 100 E7        30.19R
NEWBERRY       PTSUNNY   81  70  69 CALM      30.23S
AIKEN          FAIR      84  77  79 SE6       30.23R
BARNWELL       FAIR      82  75  78 SE6       30.19S
MANNING        FAIR      81  79  94 CALM      30.19S
CAMDEN         PTSUNNY   75  75 100 E5        30.21S FOG
LANCASTER      FAIR      81  75  83 CALM      30.21S HAZE
WINNSBORO      FAIR      81  73  78 E3        30.21R


...EASTERN AND COASTAL SOUTH CAROLINA...

CITY           SKY/WX    TMP DP  RH WIND       PRES   REMARKS
MYRTLE BEACH   MOSUNNY   81  75  83 VRB6      30.20R
N MYRTLE BCH   PTSUNNY   84  74  71 CALM      30.19S
CONWAY         CLOUDY    77  77 100 CALM      30.20R
MARION         CLOUDY    77  75  94 CALM      30.20S FOG
HARTSVILLE     CLOUDY    79  72  78 E3        30.22S
FLORENCE       MOSUNNY   82  72  71 NE6       30.20S
DARLINGTON     CLOUDY    81  72  74 N7        30.22R
CHARLESTON APT MOSUNNY   86  75  69 CALM      30.19R HX  95
MOUNT PLEASANT FAIR      84  79  84 E3        30.19R HX  96
WALTERBORO     SUNNY     86  81  84 E5        30.19S HX 102
BEAUFORT       PTSUNNY   86  76  71 SE9       30.18R HX  96


...EASTERN GEORGIA...

CITY           SKY/WX    TMP DP  RH WIND       PRES   REMARKS
AUGUSTA BUSH F SUNNY     82  74  76 SE7       30.17S
AUGUSTA DANIEL PTSUNNY   81  74  79 SE5       30.19R
THOMSON        SUNNY     84  79  85 CALM      30.22R HX  95
WASHINGTON     FAIR      81  77  89 CALM      30.18S
SYLVANIA       SUNNY     77  71  81 E5        30.18S
STATESBORO     MOSUNNY   84  76  76 S5        30.18R
SAVANNAH       MOSUNNY   86  75  69 E8        30.17R HX  95


...SOUTHERN NORTH CAROLINA...

CITY           SKY/WX    TMP DP  RH WIND       PRES   REMARKS
CHARLOTTE      MOSUNNY   79  70  74 VRB3      30.22S
MONROE         PTSUNNY   76  72  87 VRB3      30.21S
WADESBORO      MOSUNNY   80  72  78 CALM      30.21S
ROCKINGHAM     PTSUNNY   78  73  84 N3        30.22S
RUTHERFORDTON  MOSUNNY   77  71  82 CALM      30.24R
ASHEVILLE      PTSUNNY   68  67  96 S6        30.27S FOG

$$



USA.gov is the U.S. government's official web portal to all federal, state and local government web resources and services.